NOAA 16 DEB, 41275

Orbit data source: Space-Track

NOAA 16 DEB, 41275 is space debris in SSO originally from a launch on Thu, 21 Sep 2000 UTC launched from the Air Force Western Test Range (AFWTR). Debris objects in space refer to the collection of defunct objects orbiting the Earth. Examples of debris include non-operational satellites, rocket bodies, and fragments generated from explosions, collisions, or faulty payload assembly.

Loading next visibility...
Identifier
41275, 2000-055GB
Orbit
SSO
Country
Flag of USUS
Related business
Manufacturer
Unknown
Mission
Spacecraft
Bus & Motor
Unknown
Mass
Unknown
Launch date (UTC)
2000-09-21 (26 years ago)
Launch vehicle
Unknown
Launch site
Air Force Western Test Range (AFWTR)
Object type
Payload
Rocket body
Debris
Shape & HBR
Unknown shape, 0.1 m
Radar Cross Section
Medium (>0.1 m² and <1 m²)

Expand to show TLE details & history
Last TLE update: 2 days ago

TLE from 2 days ago
0 NOAA 16 DEB
1 41275U 00055GB  26235.11471188  .00002333  00000-0  96323-3 0  9995
2 41275  98.6747 288.7937 0016614 330.5291  29.4952 14.27645425550761
Epoch: 2026-08-23T02:45Z
TLE epoch observation values (Epoch: 2026-08-23T02:45:11.106Z)
Latitude
Longitude
-83.91798°
Altitude
792.161 km
Speed
7.463 km/s
True Right ascension
19h 15m 10s
True Declination
0° 00' 00"
Sunlit
Object was in full shadow at epoch
Visualization orbit readout
Latitude
Unknown
Longitude
Unknown
Altitude
Unknown
Speed
Unknown
Apparent Right ascension
Unknown
Apparent Declination
Unknown
Sunlit
N/A
Visualization observer readout
Local Sidereal Time
07:23:50
Azimuth
Unknown
Elevation
Unknown
Doppler factor
Unknown
Orbital elements
Apogee altitude
808.679 km
Perigee altitude
784.838 km
Semi-major axis
7,174.896 km
Eccentricity
0.00166
Inclination
98.6747°
RAAN
288.7937°
Arg. of periapsis
330.5291°
True anomaly
29.5891°
Mean anomaly
29.4952°
Eccentric anomaly
29.54214°
Mean motion
3.57125 °/min
Orbital period
100.81 mins
BSTAR
0.00096323
Loading maneuver chart data...
Computing Atmospheric mass density...

Documentation

Showing up to 5 results
|